Showing default

JILIN-01 KUANFU 01, 45016

Orbit data source: Space-Track

JILIN-01 KUANFU 01, 45016 is a payload satellite owned by Changguang WJ (CN) in SSO that was launched on Wed, 15 Jan 2020 UTC via a CHANG ZHENG 2D launch vehicle from the Taiyaun Space Center, China (TSC). Payload-class satellites include a variety of spacecraft equipped with specific instruments for various scientific and technological missions. These include communications satellites like Starlink; space stations such as the ISS; scientific satellites like the Hubble; Earth observation satellites from companies like Planet Labs, Umbra, and HawkEye 360; GPS; miniature CubeSats for education and research; and military/defense satellites.

Loading next visibility...
Identifier
45016, 2020-003A
Orbit
SSO
Country
Flag of CNCN / PRC
Related business
Manufacturer
HARB/CIOMP
Mission
Operational Commercial Imaging
Bus & Motor
JL-1, Unknown motor
Mass
1,250 kg wet, 1,250 kg dry
Launch date (UTC)
2020-01-15 (6 years ago)
Launch vehicle
CHANG ZHENG 2D
Launch site
Taiyaun Space Center, China (TSC)
Object type
Payload
Rocket body
Debris
Shape & HBR
Box + 2 Pan, 0.8 m
Radar Cross Section
2.000 m², Large (>1 m²)

Expand to show TLE details & history
Last TLE update: 8 hours ago

TLE from 8 hours ago
0 JILIN-01 KUANFU 01
1 45016U 20003A   25346.97309561  .00006115  00000-0  38204-3 0  9994
2 45016  97.5244  59.5042 0007124 223.8682 136.1982 15.09803967327223
Epoch: 2025-12-12T23:21Z
TLE epoch observation values (Epoch: 2025-12-12T23:21:15.460Z)
Latitude
-0.00006°
Longitude
-12.71725°
Altitude
543.429 km
Speed
7.589 km/s
True Right ascension
03h 58m 01s
True Declination
0° 00' 00"
Sunlit
Object was in full shadow at epoch
Visualization orbit readout
Latitude
Unknown
Longitude
Unknown
Altitude
Unknown
Speed
Unknown
Apparent Right ascension
Unknown
Apparent Declination
Unknown
Sunlit
N/A
Visualization observer readout
Local Sidereal Time
05:23:56
Azimuth
Unknown
Elevation
Unknown
Doppler factor
Unknown
Orbital elements
Apogee altitude
538.707 km
Perigee altitude
528.859 km
Semi-major axis
6,911.92 km
Eccentricity
0.00071
Inclination
97.5244°
RAAN
59.5042°
Arg. of periapsis
223.8682°
True anomaly
136.25467°
Mean anomaly
136.1982°
Eccentric anomaly
136.22644°
Mean motion
3.77698 °/min
Orbital period
95.31 mins
BSTAR
0.00038204
Loading maneuver chart data...
Computing Atmospheric mass density...
Loading historical data...
Loading historical data...
Loading historical data...
Loading historical data...
Loading historical data...
Loading historical data...
Loading historical data...

Documentation

Showing up to 5 results
|